Total_Precipitation_Accumulation
0.67 0.72 0.82 0.99 1.22 1.23 1.13 1.01 0.88 0.83 0.81 0.80 0.82 0.84 0.84 0.85 0.85 0.89 0.84 0.76 0.78 0.81 0.83 0.86 0.87 0.88 0.93 0.89 0.93 0.97 0.96 1.02 1.01 0.59 0.43 0.46 0.66 0.76 0.75 0.72 0.77 0.80 0.79
0.65 0.68 0.77 0.85 1.03 1.25 1.19 1.06 0.94 0.87 0.84 0.83 0.82 0.85 0.84 0.86 0.88 0.92 0.89 0.80 0.78 0.80 0.82 0.82 0.82 0.82 0.87 0.84 0.85 0.86 0.84 0.80 0.84 0.69 0.47 0.45 0.54 0.65 0.77 0.84 0.81 0.80 0.78
0.64 0.68 0.70 0.79 0.87 0.98 1.13 1.09 0.99 0.93 0.88 0.85 0.85 0.87 0.92 0.93 0.90 0.86 0.89 0.85 0.80 0.79 0.81 0.84 0.82 0.84 0.87 0.81 0.82 0.79 0.72 0.67 0.71 0.74 0.58 0.50 0.54 0.59 0.76 0.91 0.89 0.87 0.84
0.57 0.65 0.64 0.65 0.73 0.78 0.90 1.08 1.09 1.01 0.92 0.84 0.82 0.86 0.96 1.12 1.11 1.00 1.04 0.97 0.86 0.80 0.76 0.75 0.80 0.91 0.91 0.89 0.91 0.80 0.74 0.77 0.81 0.87 0.74 0.62 0.65 0.67 0.82 1.02 1.11 1.06 1.02
0.47 0.55 0.61 0.65 0.72 0.75 0.76 0.87 1.05 1.03 0.90 0.81 0.78 0.81 0.91 1.25 1.61 1.55 1.46 1.22 0.95 0.79 0.71 0.72 0.79 0.93 0.98 1.10 1.19 1.06 1.03 1.12 1.09 1.11 1.02 0.92 0.88 0.91 0.99 1.03 1.18 1.22 1.22
0.43 0.50 0.56 0.65 0.78 0.80 0.75 0.79 0.89 0.98 0.94 0.86 0.80 0.78 0.82 1.09 1.66 1.78 1.48 1.09 0.91 0.81 0.75 0.71 0.73 0.85 0.89 0.97 1.11 1.18 1.25 1.37 1.41 1.40 1.35 1.24 1.03 0.96 1.00 1.13 1.21 1.39 1.46
0.44 0.50 0.55 0.58 0.72 0.79 0.79 0.83 0.86 0.90 0.97 0.99 0.87 0.78 0.75 0.90 1.45 1.59 1.29 0.96 0.83 0.78 0.74 0.72 0.72 0.79 0.86 0.85 0.93 0.96 0.99 1.13 1.34 1.46 1.52 1.20 1.03 0.98 1.16 1.36 1.34 1.43 1.40
0.48 0.53 0.58 0.55 0.60 0.73 0.83 0.84 0.85 0.86 0.88 0.94 0.93 0.84 0.77 0.80 1.27 1.43 1.19 0.93 0.81 0.73 0.68 0.70 0.69 0.72 0.83 1.01 1.00 0.94 0.84 0.87 1.09 1.30 1.53 1.36 1.19 1.23 1.51 1.82 1.92 1.82 1.47
0.55 0.58 0.58 0.53 0.54 0.64 0.73 0.81 0.83 0.84 0.80 0.81 0.85 0.84 0.79 0.76 1.05 1.29 1.15 0.91 0.84 0.76 0.67 0.66 0.67 0.67 0.86 1.12 1.10 0.97 0.80 0.72 0.84 1.15 1.45 1.57 1.58 1.68 1.89 2.21 2.40 2.23 1.82
0.51 0.57 0.54 0.48 0.45 0.46 0.56 0.71 0.78 0.80 0.77 0.75 0.77 0.79 0.74 0.68 0.88 1.13 1.15 0.91 0.83 0.78 0.74 0.69 0.76 0.84 0.98 1.12 1.06 1.01 1.08 0.89 0.78 0.82 0.91 1.04 1.15 1.28 1.60 1.88 2.15 2.22 1.92
0.50 0.55 0.50 0.46 0.46 0.45 0.51 0.64 0.73 0.81 0.83 0.76 0.73 0.75 0.72 0.69 0.79 0.96 1.16 0.99 0.84 0.80 0.80 0.76 0.72 0.90 0.98 1.04 1.09 1.07 1.27 1.19 0.98 0.97 0.93 0.90 0.91 1.04 1.24 1.53 1.88 2.12 2.10
0.50 0.47 0.47 0.48 0.48 0.49 0.52 0.60 0.71 0.80 0.86 0.81 0.72 0.72 0.70 0.70 0.79 0.93 1.10 1.11 1.00 0.83 0.75 0.66 0.69 0.89 0.97 1.04 1.02 1.09 1.20 1.17 1.02 0.95 0.85 0.81 0.86 0.94 1.06 1.23 1.53 1.75 1.81
0.47 0.45 0.43 0.46 0.48 0.49 0.55 0.62 0.71 0.78 0.82 0.81 0.73 0.69 0.68 0.66 0.78 0.98 0.97 1.01 1.05 0.89 0.75 0.82 0.88 0.98 0.97 0.90 0.92 1.00 0.99 0.94 1.03 1.02 0.88 0.80 0.84 0.97 1.04 1.08 1.22 1.48 1.64
0.39 0.42 0.40 0.44 0.49 0.53 0.58 0.62 0.67 0.77 0.84 0.77 0.70 0.66 0.63 0.66 0.84 1.00 0.95 0.93 0.99 0.98 0.92 0.95 1.01 0.99 0.89 0.78 0.79 0.80 0.77 0.85 1.00 1.02 0.90 0.79 0.78 0.87 1.00 1.09 1.19 1.33 1.55
0.36 0.42 0.48 0.50 0.54 0.58 0.61 0.63 0.67 0.69 0.83 0.81 0.70 0.69 0.73 0.82 0.98 1.10 1.07 1.00 0.99 1.00 1.11 1.18 1.10 1.00 0.93 0.81 0.69 0.62 0.65 0.78 0.90 0.86 0.86 0.84 0.80 0.82 0.89 0.99 1.18 1.31 1.46
0.40 0.43 0.50 0.54 0.56 0.57 0.56 0.59 0.68 0.70 0.74 0.73 0.69 0.70 0.69 0.84 0.97 1.02 1.08 1.10 1.12 1.19 1.25 1.19 0.98 0.84 0.80 0.76 0.71 0.67 0.62 0.64 0.70 0.77 0.83 0.84 0.84 0.85 0.87 0.90 1.04 1.26 1.40
0.40 0.44 0.48 0.55 0.53 0.50 0.49 0.50 0.55 0.66 0.75 0.75 0.72 0.70 0.72 0.80 0.85 0.93 1.04 1.12 1.16 1.17 1.11 0.93 0.77 0.71 0.69 0.68 0.66 0.63 0.59 0.55 0.60 0.67 0.71 0.75 0.81 0.85 0.87 0.89 0.95 1.10 1.27
0.37 0.45 0.47 0.50 0.51 0.50 0.49 0.48 0.49 0.55 0.65 0.70 0.73 0.72 0.72 0.76 0.80 0.89 1.02 1.15 1.18 1.07 0.91 0.82 0.75 0.68 0.65 0.67 0.67 0.64 0.61 0.58 0.62 0.63 0.64 0.66 0.73 0.82 0.84 0.84 0.88 1.00 1.15
0.39 0.41 0.41 0.45 0.50 0.52 0.51 0.53 0.53 0.54 0.58 0.62 0.67 0.78 0.85 0.85 0.88 0.92 0.95 0.96 0.93 0.87 0.81 0.80 0.77 0.74 0.71 0.70 0.71 0.70 0.68 0.65 0.63 0.64 0.64 0.63 0.63 0.71 0.74 0.72 0.77 0.88 1.03
0.41 0.48 0.45 0.46 0.51 0.53 0.54 0.57 0.61 0.63 0.64 0.65 0.67 0.74 0.90 1.05 1.05 1.01 0.92 0.86 0.85 0.77 0.75 0.80 0.81 0.80 0.79 0.79 0.79 0.77 0.75 0.69 0.66 0.65 0.62 0.61 0.60 0.63 0.66 0.67 0.72 0.79 0.85
0.40 0.45 0.52 0.50 0.48 0.50 0.54 0.58 0.63 0.68 0.70 0.66 0.62 0.70 0.92 1.05 0.97 0.84 0.80 0.82 0.88 0.88 0.83 0.83 0.83 0.83 0.83 0.84 0.84 0.80 0.75 0.68 0.63 0.61 0.61 0.59 0.60 0.62 0.62 0.65 0.69 0.73 0.80
0.43 0.45 0.46 0.47 0.49 0.52 0.57 0.59 0.65 0.70 0.70 0.69 0.68 0.73 0.86 0.84 0.83 0.81 0.78 0.79 0.86 0.93 0.94 0.95 0.90 0.86 0.87 0.90 0.90 0.87 0.78 0.67 0.59 0.58 0.59 0.58 0.58 0.59 0.60 0.62 0.62 0.66 0.74
0.47 0.48 0.50 0.48 0.49 0.59 0.63 0.61 0.64 0.69 0.72 0.72 0.73 0.75 0.78 0.78 0.79 0.81 0.83 0.84 0.90 0.94 0.93 0.94 0.92 0.86 0.82 0.82 0.83 0.86 0.84 0.70 0.60 0.61 0.65 0.63 0.61 0.59 0.59 0.60 0.59 0.62 0.68
0.52 0.55 0.54 0.51 0.51 0.57 0.63 0.65 0.67 0.70 0.73 0.75 0.75 0.75 0.76 0.77 0.79 0.81 0.85 0.91 0.95 0.94 0.91 0.91 0.87 0.83 0.80 0.79 0.76 0.74 0.73 0.71 0.71 0.71 0.70 0.70 0.65 0.60 0.61 0.63 0.60 0.61 0.67
0.57 0.57 0.57 0.56 0.56 0.58 0.63 0.67 0.69 0.70 0.72 0.74 0.75 0.76 0.76 0.78 0.80 0.81 0.83 0.87 0.90 0.89 0.86 0.86 0.85 0.84 0.81 0.77 0.74 0.71 0.76 0.80 0.83 0.90 0.92 0.85 0.73 0.65 0.66 0.66 0.62 0.61 0.65
0.56 0.57 0.58 0.60 0.61 0.62 0.67 0.73 0.71 0.70 0.75 0.75 0.75 0.77 0.79 0.81 0.80 0.77 0.77 0.79 0.81 0.80 0.78 0.79 0.79 0.82 0.81 0.80 0.78 0.82 0.87 0.84 0.85 0.91 0.99 0.98 0.81 0.67 0.66 0.69 0.64 0.64 0.66